Weather History for KTAN - December, 2012

Change the Weather History Date:

Monday, December 3, 2012

  Actual Average Record
Temperature  
Mean Temperature 45 °F -  
Max Temperature 60 °F 46 °F 61 °F (1986)
Min Temperature 30 °F 25 °F 7 °F (1976)
Degree Days  
Heating Degree Days 20    
Moisture  
Dew Point 38 °F    
Average Humidity 81    
Maximum Humidity 93    
Minimum Humidity 47    
Precipitation  
Precipitation 0.00 in - - ()
Sea Level Pressure  
Sea Level Pressure 30.18 in    
Wind  
Wind Speed 6 mph (WSW)    
Max Wind Speed 12 mph    
Max Gust Speed 17 mph    
Visibility 6 miles    
Events      
Averages and records for this station are not official NWS values.
T = Trace of Precipitation, MM = Missing Value Source: NWS Daily Summary

Daily Weather History Graph

Daily Weather History Graph

Search for Another Location

Airport or City:

Trip Planner

Search our weather history database for the weather conditions in past years. The results will help you decide how hot, cold, wet, or windy it might be!

Date:

Astronomy

Dec. 03, 2012 Rise Set
Actual Time 6:54 AM EST 4:13 PM EST
Civil Twilight 6:23 AM EST 4:44 PM EST
Nautical Twilight 5:48 AM EST 5:19 PM EST
Astronomical Twilight 5:15 AM EST 5:52 PM EST
Moon 8:59 PM EST (12/3) 10:14 AM EST (12/3)
Length of Visible Light 10h 21m
Length of Day
9h 18m
Waning Gibbous, 78% of the Moon is Illuminated
Dec 3
Waning Gibbous
Dec 6
Last Quarter
Dec 13
New
Dec 20
First Quarter
Dec 28
Full

Hourly Weather History & Observations

Time (EST) Temp. Windchill Dew Point Humidity Pressure Visibility Wind Dir Wind Speed Gust Speed Precip Events Conditions
12:32 AM 54.0 °F - 46.9 °F 77% 30.04 in 10.0 mi SW 10.4 mph - N/A   Overcast
12:52 AM 53.1 °F - 46.9 °F 80% 30.05 in 10.0 mi SW 9.2 mph - N/A   Overcast
1:06 AM 53.1 °F - 46.9 °F 80% 30.05 in 10.0 mi SW 9.2 mph - N/A   Overcast
1:52 AM 53.1 °F - 46.9 °F 80% 30.05 in 10.0 mi WSW 6.9 mph - N/A   Mostly Cloudy
2:52 AM 53.1 °F - 46.9 °F 80% 30.06 in 10.0 mi WSW 6.9 mph - N/A   Overcast
3:31 AM 52.0 °F - 46.0 °F 80% 30.05 in 9.0 mi WSW 5.8 mph - N/A   Mostly Cloudy
3:52 AM 52.0 °F - 46.0 °F 80% 30.06 in 8.0 mi WSW 6.9 mph - N/A   Mostly Cloudy
4:52 AM 50.0 °F - 45.0 °F 83% 30.07 in 7.0 mi WSW 4.6 mph - N/A   Scattered Clouds
5:52 AM 48.9 °F - 45.0 °F 86% 30.08 in 6.0 mi WSW 4.6 mph - N/A   Clear
6:52 AM 46.9 °F - 44.1 °F 90% 30.10 in 4.0 mi SW 3.5 mph - N/A   Clear
7:10 AM 46.0 °F 44.8 °F 43.0 °F 89% 30.10 in 2.5 mi SSW 3.5 mph - N/A   Clear
7:43 AM 46.9 °F - 44.1 °F 90% 30.10 in 3.0 mi WSW 4.6 mph - N/A   Clear
7:52 AM 48.0 °F - 45.0 °F 89% 30.11 in 3.0 mi WSW 5.8 mph - N/A   Clear
8:52 AM 52.0 °F - 45.0 °F 77% 30.14 in 6.0 mi West 6.9 mph - N/A   Haze
10:52 AM 59.0 °F - 43.0 °F 55% 30.13 in 10.0 mi NW 9.2 mph - N/A   Clear
11:52 AM 59.0 °F - 42.1 °F 53% 30.12 in 10.0 mi West 11.5 mph 17.3 mph N/A   Mostly Cloudy
12:52 PM 60.1 °F - 39.9 °F 47% 30.13 in 10.0 mi NNW 6.9 mph - N/A   Clear
1:52 PM 60.1 °F - 39.9 °F 47% 30.13 in 10.0 mi NW 10.4 mph - N/A   Clear
2:52 PM 60.1 °F - 39.9 °F 47% 30.15 in 10.0 mi NNW 6.9 mph - N/A   Clear
3:52 PM 57.0 °F - 39.0 °F 51% 30.17 in 10.0 mi NNW 4.6 mph - N/A   Clear
4:52 PM 44.1 °F - 39.0 °F 82% 30.19 in 10.0 mi Calm Calm - N/A   Clear
5:52 PM 41.0 °F - 37.0 °F 86% 30.22 in 10.0 mi Calm Calm - N/A   Clear
6:52 PM 37.9 °F - 35.1 °F 89% 30.25 in 10.0 mi Calm Calm - N/A   Clear
7:52 PM 36.0 °F - 34.0 °F 93% 30.26 in 3.0 mi Calm Calm - N/A   Clear
8:52 PM 34.0 °F - 30.9 °F 89% 30.27 in 10.0 mi Calm Calm - N/A   Clear
9:35 PM 33.1 °F - 30.0 °F 89% 30.28 in 1.5 mi Calm Calm - N/A   Clear
9:40 PM 32.0 °F - 30.0 °F 92% 30.27 in 0.8 mi Calm Calm - N/A   Clear
9:52 PM 32.0 °F - 30.0 °F 92% 30.28 in 0.8 mi Calm Calm - N/A   Clear
10:24 PM 30.9 °F - 28.9 °F 92% 30.28 in 1.5 mi Calm Calm - N/A   Clear
10:29 PM 30.9 °F - 28.9 °F 92% 30.29 in 3.0 mi Calm Calm - N/A   Clear
10:34 PM 32.0 °F - 28.9 °F 88% 30.29 in 1.8 mi Calm Calm - N/A   Clear
10:42 PM 30.9 °F - 28.9 °F 92% 30.29 in 3.0 mi Calm Calm - N/A   Clear
10:52 PM 30.9 °F - 28.9 °F 92% 30.29 in 5.0 mi Calm Calm - N/A   Clear
10:58 PM 30.9 °F - 28.9 °F 92% 30.29 in 1.8 mi Calm Calm - N/A   Clear
11:11 PM 30.0 °F - 28.0 °F 92% 30.29 in 3.0 mi Calm Calm - N/A   Clear
11:47 PM 30.2 °F - 28.4 °F 93% 30.29 in 1.8 mi Calm Calm - N/A   Clear
11:52 PM 30.0 °F - 28.0 °F 92% 30.30 in 1.2 mi Calm Calm - N/A   Clear